星链-31906 (STARLINK-31906 )

导读

STARLINK-31906是美国太空探索技术公司(SpaceX)旗下星链(Starlink)卫星互联网星座的一员,于2024年5月23日发射升空。星链项目旨在通过在低地球轨道部署大量小型卫星,为全球尤其是基础设施匮乏地区提供高速、低延迟的宽带互联网服务,支持流媒体、视频通话与在线网络活动。

基本信息
目录编号:
59842
目录名称:
STARLINK-31906
国际标识:
2024-097H
轨道中心:
EARTH
卫星名称:
星链-31906
卫星全名:
星链-31906 (STARLINK-31906 )
卫星状态:
在轨 (已飞行756 天)
发射日期:
2024-05-23 UTC
国别 :
美国 (US)
星等 :
--
轨道信息
数据来源 国际轨道数据
星历时间: 2026-06-16T19:26:44+0800
1天前
查看轨道信息
半长轴: 6861.187km
偏心率: 0.0001203
轨道倾角: 43.004°
近地点辐角 270.062°
升交点赤经 76.582°
平近点角 90.010°
近地点: 482.224km
远地点: 483.876km
周期: 94.267分钟
每日圈数: 15.275798
详细信息
固有亮度:
5
最大亮度:
1.5
卫星平台:
Starlink v2.0 mini
覆盖范围:
全球
运营商:
太空探索技术公司
运营商所在国:
美国
制造商(研发单位):
太空探索技术公司
制造商所在国:
美国
使用方式:
暂无
卫星简介
星链(Starlink)计划是由太空探索技术公司(SpaceX)提出的一个巨型低轨卫星互联网星座项目,计划在2019年至2024年间在太空搭建由约1.2万颗卫星组成的“星链”网络,其中1584颗将部署在地球上空550千米处的近地轨道,并从2020年开始工作。该卫星仍在工作。
2D轨道图
3D轨道图
轨道高度分析图
轨道倾角分析图
轨道综合分析图
查看轨道综合分析图